This is the latest recevied weather packets stored in our database for station/object EA6AMI-5. If no packets are shown the sender has not sent any weather packets the latest 1 day(s).
| Time | Temp. | Humidity | Pressure | Rain* | Wind** | Luminosity | Snow |
|---|---|---|---|---|---|---|---|
| 1778013363 | 16.67° C | 88% | 1012 hPa | 0 mm | 0.89 m/s, 207° | 0 W/m² | - |
| 1778012824 | 16.11° C | 88% | 1011.9 hPa | 0 mm | 0.89 m/s, 225° | 0 W/m² | - |
| 1778012283 | 16.67° C | 89% | 1011.8 hPa | 0 mm | 1.79 m/s, 225° | 0 W/m² | - |
| 1778011744 | 16.67° C | 89% | 1011.8 hPa | 0 mm | 1.79 m/s, 221° | 0 W/m² | - |
| 1778011204 | 16.67° C | 89% | 1011.6 hPa | 0 mm | 1.79 m/s, 205° | 0 W/m² | - |
| 1778010843 | 16.67° C | 88% | 1011.3 hPa | 0 mm | 1.79 m/s, 216° | 0 W/m² | - |
| 1778010303 | 17.22° C | 87% | 1011.3 hPa | 0 mm | 1.79 m/s, 216° | 0 W/m² | - |
| 1778009763 | 17.22° C | 86% | 1011.1 hPa | 0 mm | 1.34 m/s, 218° | 0 W/m² | - |
| 1778009223 | 17.22° C | 85% | 1011 hPa | 0 mm | 1.79 m/s, 218° | 0 W/m² | - |
| 1778008684 | 17.22° C | 86% | 1011 hPa | 0 mm | 1.79 m/s, 220° | 0 W/m² | - |
| 1778008143 | 17.22° C | 86% | 1010.9 hPa | 0 mm | 2.24 m/s, 213° | 0 W/m² | - |
| 1778007604 | 17.22° C | 85% | 1010.8 hPa | 0 mm | 1.79 m/s, 205° | 0 W/m² | - |
| 1778007243 | 17.22° C | 85% | 1010.9 hPa | 0 mm | 1.79 m/s, 194° | 1 W/m² | - |
| 1778006703 | 17.22° C | 85% | 1010.5 hPa | 0 mm | 1.79 m/s, 215° | 3 W/m² | - |
| 1778006163 | 17.78° C | 84% | 1010.5 hPa | 0 mm | 2.24 m/s, 221° | 7 W/m² | - |
| 1778005623 | 17.78° C | 83% | 1010.5 hPa | 0 mm | 2.24 m/s, 204° | 11 W/m² | - |
| 1778005083 | 17.78° C | 81% | 1010.7 hPa | 0 mm | 1.79 m/s, 209° | 17 W/m² | - |
| 1778004543 | 18.33° C | 80% | 1010.4 hPa | 0 mm | 1.79 m/s, 199° | 23 W/m² | - |
| 1778004003 | 18.33° C | 79% | 1010.6 hPa | 0 mm | 2.24 m/s, 207° | 27 W/m² | - |
| 1778003644 | 18.89° C | 78% | 1010.6 hPa | 0 mm | 2.24 m/s, 208° | 28 W/m² | - |
| 1778003103 | 18.89° C | 77% | 1010.4 hPa | 0 mm | 1.79 m/s, 200° | 39 W/m² | - |
| 1778002563 | 19.44° C | 75% | 1010.3 hPa | 0 mm | 2.24 m/s, 190° | 55 W/m² | - |
| 1778002023 | 19.44° C | 75% | 1010.1 hPa | 0 mm | 2.68 m/s, 197° | 65 W/m² | - |
| 1778001483 | 19.44° C | 74% | 1010.4 hPa | 0 mm | 2.68 m/s, 196° | 79 W/m² | - |
| 1778000944 | 19.44° C | 73% | 1010.5 hPa | 0 mm | 2.68 m/s, 195° | 119 W/m² | - |
* Rain latest hour (hover to see other rain measurements)
** Current wind speed in m/s (hover to see current wind gust speed)